Metropolis, IL

5:57 PM CST on December 17, 2017 (GMT -0600)
Metropolis

Weather History for KM30 - January, 2013

Change the Weather History Date:

Thursday, January 10, 2013

  Actual Average (KPAH) Record (KPAH)
Temperature  
Mean Temperature 55 °F -  
Max Temperature 65 °F 38 °F 70 °F (1949)
Min Temperature 45 °F 20 °F -8 °F (1982)
Degree Days  
Heating Degree Days 10    
Growing Degree Days 5 (Base 50)    
Moisture  
Dew Point 54 °F    
Average Humidity 95    
Maximum Humidity 100    
Minimum Humidity 61    
Precipitation  
Precipitation 0.81 in - - ()
Sea Level Pressure  
Sea Level Pressure 30.12 in    
Wind  
Wind Speed 8 mph (ESE)    
Max Wind Speed 20 mph    
Max Gust Speed 28 mph    
Visibility 7 miles    
Events Rain    
Averages and records for this station are not official NWS values.
T = Trace of Precipitation, MM = Missing Value Source: NWS Daily Summary

Daily Weather History Graph

Daily Weather History Graph

Search for Another Location

Airport or City:

Trip Planner

Search our weather history database for the weather conditions in past years. The results will help you decide how hot, cold, wet, or windy it might be!

Date:

Astronomy

Jan. 10, 2013 Rise Set
Actual Time 7:08 AM CST 4:56 PM CST
Civil Twilight 6:40 AM CST 5:25 PM CST
Nautical Twilight 6:08 AM CST 5:57 PM CST
Astronomical Twilight 5:36 AM CST 6:29 PM CST
Moon 5:48 AM CST (1/10) 4:04 PM CST (1/10)
Length of Visible Light 10h 45m
Length of Day
9h 47m
Waning Crescent, 2% of the Moon is Illuminated
Jan 10
Waning Crescent
Jan 11
New
Jan 18
First Quarter
Jan 26
Full
Feb 3
Last Quarter

Hourly Weather History & Observations

Time (CST) Temp. Windchill Dew Point Humidity Pressure Visibility Wind Dir Wind Speed Gust Speed Precip Events Conditions
12:15 AM 49.3 °F - 36.5 °F 61% 30.42 in 10.0 mi ENE 6.9 mph - N/A   Overcast
2:15 AM 46.4 °F 43.5 °F 39.2 °F 76% 30.39 in 10.0 mi ENE 5.8 mph - N/A Rain Light Rain
2:35 AM 45.9 °F 42.9 °F 39.4 °F 78% 30.38 in 10.0 mi ENE 5.8 mph - 0.01 in Rain Light Rain
2:55 AM 45.5 °F 42.5 °F 39.9 °F 81% 30.37 in 10.0 mi ENE 5.8 mph - 0.01 in Rain Light Rain
3:15 AM 45.5 °F 40.8 °F 40.1 °F 81% 30.35 in 10.0 mi ENE 9.2 mph - N/A   Drizzle
3:35 AM 45.9 °F 42.3 °F 40.8 °F 83% 30.34 in 10.0 mi ENE 6.9 mph - 0.01 in Rain Light Rain
3:55 AM 46.4 °F 41.5 °F 41.2 °F 82% 30.33 in 10.0 mi East 10.4 mph - 0.02 in   Drizzle
4:15 AM 46.9 °F - 41.4 °F 81% 30.31 in 10.0 mi East 9.2 mph 18.4 mph N/A Rain Light Rain
4:35 AM 46.6 °F - 41.9 °F 84% 30.30 in 10.0 mi East 11.5 mph 19.6 mph N/A Rain Rain
4:55 AM 46.2 °F 41.2 °F 42.3 °F 86% 30.30 in 10.0 mi East 10.4 mph 16.1 mph 0.01 in Rain Light Rain
5:15 AM 45.9 °F 41.2 °F 44.2 °F 94% 30.29 in 7.0 mi East 9.2 mph - 0.04 in Rain Heavy Rain
5:35 AM 45.7 °F 41.5 °F 45.7 °F 100% 30.29 in 10.0 mi East 8.1 mph - 0.05 in Rain Rain
5:55 AM 45.9 °F 41.2 °F 45.9 °F 100% 30.29 in 7.0 mi East 9.2 mph - 0.09 in Rain Light Rain
6:15 AM 45.9 °F 40.8 °F 45.9 °F 100% 30.28 in 7.0 mi East 10.4 mph - N/A Rain Rain
6:55 AM 46.0 °F 41.4 °F 46.0 °F 100% 30.27 in 10.0 mi East 9.2 mph - 0.01 in Rain Rain
7:15 AM 46.4 °F 42.9 °F 46.4 °F 100% 30.27 in 7.0 mi East 6.9 mph - N/A Rain Rain
7:55 AM 46.8 °F - 46.8 °F 100% 30.26 in 5.0 mi East 6.9 mph - 0.03 in Rain Light Rain
8:15 AM 47.3 °F - 47.3 °F 100% 30.26 in 4.0 mi East 6.9 mph - 0.01 in Rain Rain
8:35 AM 47.8 °F - 47.8 °F 100% 30.26 in 3.0 mi East 6.9 mph - 0.07 in Rain Rain
8:55 AM 48.2 °F - 48.2 °F 100% 30.26 in 3.0 mi East 8.1 mph - 0.15 in Rain Rain
9:15 AM 48.6 °F - 48.6 °F 100% 30.26 in 1.5 mi East 5.8 mph - 0.12 in Rain Heavy Rain
9:35 AM 49.1 °F - 49.1 °F 100% 30.25 in 4.0 mi East 5.8 mph - 0.15 in Rain Light Rain
9:55 AM 50.0 °F - 50.0 °F 100% 30.23 in 5.0 mi East 5.8 mph - 0.15 in Rain Rain
10:15 AM 50.0 °F - 50.0 °F 100% 30.23 in 3.0 mi East 4.6 mph - 0.04 in Rain Heavy Rain
10:35 AM 50.7 °F - 50.7 °F 100% 30.22 in 4.0 mi East 5.8 mph - 0.06 in Rain Light Rain
10:55 AM 51.4 °F - 51.4 °F 100% 30.20 in 3.0 mi East 5.8 mph - 0.06 in   Light Drizzle
11:15 AM 52.3 °F - 52.3 °F 100% 30.18 in 3.0 mi East 6.9 mph - N/A   Overcast
11:35 AM 53.4 °F - 53.4 °F 100% 30.17 in 4.0 mi ESE 5.8 mph - N/A   Overcast
11:55 AM 54.0 °F - 54.0 °F 100% 30.15 in 4.0 mi East 4.6 mph - N/A   Overcast
12:15 PM 54.5 °F - 54.5 °F 100% 30.14 in 4.0 mi ESE 5.8 mph - N/A   Overcast
12:35 PM 55.0 °F - 55.0 °F 100% 30.13 in 4.0 mi East 5.8 mph - N/A   Overcast
12:55 PM 55.4 °F - 55.4 °F 100% 30.13 in 4.0 mi ESE 5.8 mph - N/A Rain Light Rain
1:15 PM 56.3 °F - 56.3 °F 100% 30.12 in 3.0 mi East 3.5 mph - N/A   Overcast
1:35 PM 56.3 °F - 56.3 °F 100% 30.11 in 3.0 mi ESE 5.8 mph - N/A Rain Rain
1:55 PM 57.0 °F - 57.0 °F 100% 30.10 in 2.5 mi ESE 3.5 mph - 0.02 in Rain Light Rain
2:35 PM 58.3 °F - 58.3 °F 100% 30.08 in 4.0 mi ESE 5.8 mph - 0.01 in   Overcast
2:55 PM 58.3 °F - 58.3 °F 100% 30.06 in 2.5 mi East 5.8 mph - 0.01 in   Overcast
3:15 PM 59.0 °F - 59.0 °F 100% 30.04 in 3.0 mi ESE 5.8 mph - N/A   Overcast
3:35 PM 60.3 °F - 60.3 °F 100% 30.01 in 5.0 mi ESE 10.4 mph 17.3 mph N/A   Overcast
3:55 PM 61.2 °F - 61.2 °F 100% 30.00 in 5.0 mi ESE 12.7 mph 20.7 mph N/A   Overcast
4:15 PM 61.7 °F - 61.7 °F 100% 29.99 in 7.0 mi ESE 11.5 mph 20.7 mph N/A   Overcast
4:35 PM 62.2 °F - 62.2 °F 100% 29.99 in 7.0 mi SE 11.5 mph 20.7 mph N/A   Overcast
4:55 PM 62.1 °F - 62.1 °F 100% 29.97 in 7.0 mi SE 11.5 mph 17.3 mph N/A   Overcast
5:15 PM 62.8 °F - 62.8 °F 100% 29.97 in 10.0 mi SE 8.1 mph 16.1 mph N/A   Overcast
5:35 PM 62.6 °F - 62.6 °F 100% 29.95 in 10.0 mi SE 9.2 mph - N/A   Overcast
5:55 PM 62.8 °F - 62.6 °F 99% 29.94 in 10.0 mi SE 8.1 mph - N/A   Mostly Cloudy
6:15 PM 63.5 °F - 62.8 °F 97% 29.94 in 10.0 mi ESE 5.8 mph - N/A   Mostly Cloudy
6:35 PM 62.8 °F - 62.6 °F 99% 29.92 in 10.0 mi ESE 9.2 mph - N/A   Mostly Cloudy
6:55 PM 63.3 °F - 62.8 °F 98% 29.94 in 10.0 mi SE 8.1 mph - N/A   Mostly Cloudy
7:15 PM 63.3 °F - 62.6 °F 97% 29.92 in 10.0 mi SE 8.1 mph - N/A   Mostly Cloudy
7:35 PM 64.4 °F - 63.0 °F 95% 29.93 in 10.0 mi SSE 8.1 mph - N/A   Overcast
7:55 PM 65.3 °F - 62.6 °F 91% 29.94 in 10.0 mi SSE 9.2 mph 18.4 mph N/A   Overcast
8:15 PM 65.5 °F - 62.8 °F 91% 29.94 in 10.0 mi SSE 6.9 mph - N/A   Overcast
8:35 PM 65.3 °F - 62.8 °F 92% 29.94 in 10.0 mi SSE 5.8 mph - N/A   Overcast
8:55 PM 65.5 °F - 62.8 °F 91% 29.92 in 10.0 mi SSE 9.2 mph 16.1 mph N/A   Overcast
9:15 PM 65.3 °F - 63.3 °F 93% 29.91 in 10.0 mi SE 5.8 mph - N/A Rain Light Rain
9:35 PM 64.4 °F - 63.7 °F 98% 29.91 in 10.0 mi SSE 9.2 mph - N/A Rain Light Rain
9:55 PM 64.0 °F - 63.9 °F 99% 29.89 in 10.0 mi SSE 10.4 mph - 0.01 in   Overcast
10:15 PM 64.0 °F - 64.0 °F 100% 29.88 in 5.0 mi SSE 5.8 mph - 0.05 in Rain Heavy Rain
10:35 PM 63.5 °F - 63.5 °F 100% 29.87 in 7.0 mi SSE 6.9 mph - 0.15 in Rain Light Rain
11:35 PM 61.5 °F - 60.8 °F 97% 29.87 in 7.0 mi SW 19.6 mph 27.6 mph 0.09 in Rain Rain
11:55 PM 61.2 °F - 59.9 °F 96% 29.87 in 10.0 mi SW 11.5 mph 21.9 mph 0.09 in   Overcast